CYGFM06 (41889 NORAD) Tracking and Keplerian Element Data

This shows tracking and keplerian element data for the satellite.

Feedback or suggestion? Click here.




ElementValue
Catalog41889
NameCYGFM06
Epoch Orbit10617
Epoch Day319.56152195
Epoch Year2018
RAAN57.3542
Inclination34.9593
Eccentricity0.0014746
Argument of Perigee271.9725
Mean Anonmoly87.9298
Mean Motion15.14742623
Decay Rate4.25E-06
L11 41889U 16078F 18319.56152195 .00000425 00000-0 24069-4 0 9994
L22 41889 34.9593 57.3542 0014746 271.9725 87.9298 15.14742623106179

Live tracking and technical data element details for CYGFM06 (NORAD 41889). CYGFM06 can be tracked NOW for your location showing map with azimuth and elevation plus other details from your city location.

Track the satellite on the map from your city or location and see movement details for azimuth, elevation, latitude, longitude, range, height, and movement on the map or in text.







IsCatalogInMostPopularTable: catalog: 41889, numindb: 119
Update: records affected: 1



GetName: 41889 CYGFM06

Hit Count: updated at: Fri, 16 Nov 2018 11:19:58 GMT